Regional Weather Roundup
Issued by NWS

Home | Current Version | Previous Version | Text Only | Print | Product List | Glossary On
Versions: 1 2 3 4 5 6 7 8 9 10 11 12 13 14 15 16 17 18 19 20 21 22 23 24 25 26 27 28 29 30 31 32 33 34 35 36 37 38 39 40 41 42 43 44 45 46 47 48 49 50
000
ASHW40 PHFO 260912
RWRHI

WEATHER ROUNDUP FOR HAWAII
NATIONAL WEATHER SERVICE HONOLULU HI
1100 PM HST SAT MAR 25 2017

THIS IS AN AUTOMATED REPORT THAT HAS NOT BEEN QUALITY CONTROLLED.

NOTE..."FAIR" INDICATES FEW OR NO CLOUDS BELOW 12,000 FEET WITH NO
SIGNIFICANT WEATHER AND/OR OBSTRUCTIONS TO VISIBILITY.

* - THESE SITES REPORT LIMITED FIELDS

HIZ001>004-261000-
KAUAI-NIIHAU-

CITY           SKY/WX    TMP DP  RH WIND       PRES   REMARKS
LIHUE APT      CLOUDY    75  68  78 NE13      30.25S
PORT ALLEN*      N/A     73 N/A N/A E13G21      N/A
POIPU*           N/A     73 N/A N/A NE5G10      N/A
PRINCEVILLE*     N/A     72 N/A N/A SE3         N/A
KOKOLE POINT*  NOT AVBL
MOLOAA DAIRY*    N/A     72  66  83 E3G12       N/A
WAIMEA HTS*    NOT AVBL
PUU OPAE*      NOT AVBL
PUU LUA*       NOT AVBL
MAKAHA RIDGE*  NOT AVBL
$$

HIZ005>011-261000-
OAHU-

CITY           SKY/WX    TMP DP  RH WIND       PRES   REMARKS
HONOLULU       PTCLDY    76  64  66 NE15      30.20F
KALAELOA       CLEAR     74  64  71 E3        30.22S
KANEOHE MCB    PTCLDY    77  67  71 E9G16     30.20R
WHEELER FIELD  NOT AVBL
BELLOWS*       NOT AVBL
KAHUKU*        NOT AVBL
WHEELER*       NOT AVBL
WAIANAE HARBOR NOT AVBL
DILLINGHAM*      N/A     88  84  89 NW1         N/A  HX 112
KAHUKU TRN*      N/A     72  66  83 W10G21      N/A
KAWAILOA*        N/A     70  64  83 E7G20       N/A
KII*             N/A     75  68  78 E18G24      N/A
MAKUA RANGE*     N/A     84  73  70 NW7G14      N/A  HX  91
OAHU FOREST NW NOT AVBL
SCHOFIELD BRK*   N/A     81  72  74 MISG        N/A
SCHOFIELD S*   NOT AVBL
WAIANAE VLY*   NOT AVBL
KUAOKALA*      NOT AVBL
HONOULIUULI*   NOT AVBL
MOKUOLOE IS*   NOT AVBL
PALEHUA*       NOT AVBL
WAIAWA PHB*    NOT AVBL
$$

HIZ012>013-261000-
MOLOKAI-

CITY           SKY/WX    TMP DP  RH WIND       PRES   REMARKS
MOLOKAI AIRPT  CLEAR     74  65  73 NE13G22   30.21R
KALAUPAPA      NOT AVBL
MAKAPULAPAI*   NOT AVBL
MOLOKAI 1*     NOT AVBL
PUU ALII*      NOT AVBL
$$

HIZ016-261000-
KAHOOLAWE-

CITY           SKY/WX    TMP DP  RH WIND       PRES   REMARKS
KAHOOLAWE*     NOT AVBL
HAKIOAWA*      NOT AVBL
HONOKANAIA*      N/A     76  65  67 NE8G24    30.14R
KANELOA*         N/A     73  64  73 NE15G28   30.26R
KEALIALALO*    NOT AVBL
LUA MAKIKA*    NOT AVBL
$$

HIZ014>015-261000-
LANAI-

CITY           SKY/WX    TMP DP  RH WIND       PRES   REMARKS
LANAI CITY     FAIR      68  64  87 NE10      30.24S
LANAI 1*       NOT AVBL
$$

HIZ017>028-261000-
MAUI-

CITY           SKY/WX    TMP DP  RH WIND       PRES   REMARKS
KAHULUI        PTCLDY    68  62  81 E8        30.18S
KAPALUA-W MAUI NOT AVBL
HANA AIRPORT   PTCLDY    73  66  78 SE5       30.25F
HANA*            N/A     73 N/A N/A SE5         N/A
HALEAKALA SUMM   N/A     41  19  42 E33G47      N/A
MAALAEA BAY*   NOT AVBL
HALEAKALA*     NOT AVBL
KAUPO GAP*     NOT AVBL
KULA 1*          N/A    N/A N/A N/A E3G18       N/A
$$

HIZ023>026-261000-
BIG ISLAND OF HAWAII COAST AND LOWER SLOPES-

CITY           SKY/WX    TMP DP  RH WIND       PRES   REMARKS
KAILUA KONA    CLOUDY    76  66  71 E7        30.15S
HILO           PTCLDY    68  61  78 SW6       30.23S
HONOKAA*         N/A     66 N/A N/A VRB1        N/A
KAWAIHAE MWT*    N/A     79 N/A N/A NW5         N/A
KAWAIHAE*      NOT AVBL
SOUTH POINT*     N/A     70 N/A N/A N15G23      N/A
UPOLU AIRPORT* NOT AVBL
KAMUELA*       MOSUNNY   61  59  94 NE15      30.27S
HAKALAU*         N/A    N/A N/A N/A SW5G10      N/A
KALOKO-HONOKO* NOT AVBL
PALI 2*          N/A     66  39  37 S13G18      N/A
KEALAKOMO*       N/A     75  63  64 N18G28      N/A
KAUPULEHU*     NOT AVBL
KAPAPALA*        N/A     57  53  88 N3G9        N/A
LOWER KAHUKU*  NOT AVBL
PUHE CS*       NOT AVBL
PUHO CS*       NOT AVBL
PTA KEAMUKU*     N/A     59  55  88 CALM        N/A
WAIKOLOA*      NOT AVBL
$$

HIZ027>028-261000-
BIG ISLAND OF HAWAII INTERIOR AND SUMMMITS-

CITY           SKY/WX    TMP DP  RH WIND       PRES   REMARKS
BRADSHAW FIELD CLOUDY    57  24  27 SE18G26   30.46F
MK VISITOR CEN   N/A     46  10  23 E14         N/A
MAUNA KEA*       N/A     32   0  25 NE41        N/A  WCI  16
MAUNA LOA*       N/A    N/A N/A N/A MISG        N/A
MAUNA LOA 1*   NOT AVBL
PTA KIPUKA*      N/A     64  14  14 E18G35      N/A
PTA RANGE 17*    N/A     75  37  25 SE23G33     N/A
PTA WEST*        N/A     73  66  78 N7G32       N/A
NENE CABIN*    NOT AVBL
AHUMOA*        NOT AVBL
PTA PORTABLE*  NOT AVBL
PUU MALI*        N/A     61  12  15 E18G31      N/A
$$

HIC003-261000-
NORTHWEST ISLANDS-

CITY           SKY/WX    TMP DP  RH WIND       PRES   REMARKS
MIDWAY ISLAND  MOCLDY    72  68  88 S5        30.15R
MIDWAY NOS*    NOT AVBL
FRENCH FRIGATE NOT AVBL
$$

PHZ110>124-180-261000-
BUOY REPORTS

STATION/POSITION TIME  TEMP    WIND        PRES    WAVE   SWELL
                       AIR SEA DIR/SP/G            HT/PER HT/DIR
                 (UTC) (F)     (DEG/KT/KT) (MB)    (FT/S) (FT/D)
BUOY 51001       0850   75 76  100/ 14/ 19 1024.0R  12/16  11/290
BUOY 51101       0850   75 76  100/ 14/ 17 1024.5R  12/16  11/280
BUOY 51100       NOT AVBL
BUOY 51002       0850   78 78   80/ 21/ 25 1019.9F  10/19   7/260
BUOY 51003       0850   77 78  100/ 12/ 14 1021.3S  10/17  10/290
BUOY 51004       0850      77   60/ 19/ 23 1020.5F   9/10   7/100
BARBERS PT BUOY  NOT AVBL
WAIMEA BAY BUOY  0802      75                N/A     8/18   7/310
KAILUA BAY BUOY  0834      77                N/A     6/ 7   2/360
LANAI BUOY       0845      78                N/A     4/18   2/260
BARBERS PT 2     NOT AVBL
PAUWELA MAUI     0839      76                N/A     5/20   2/320
HILO             0842      78                N/A     7/10   2/ 10
KANEOHE BAY BUOY 0855      76                N/A     5/ 6   2
HANALEI KAUAI    0852      77                N/A     9/18   8/300
KAHULUI HARBOR   0842   75 78   40/ 11/ 15 1022.1F
HONOLULU HARBOR  0842   76 78   90/  3/  5 1023.6F
KILO NALU        NOT AVBL
HILO HARBOR      0842   70 76  210/  3/  4 1023.6R
MOKUOLOE         0836   76 79   90/ 11/ 15 1023.5F
NAWILIWILI       0842   75 80   40/  8/ 13 1023.7S
WHOTS BUOY       NOT AVBL
BUOY 51028       NOT AVBL
$$

......................KEY........................................
  SKY/WX - SKY CONDITIONS/PRESENT WEATHER
  TMP    - TEMPERATURE IN FAHRENHEIT
  DWPT   - DEWPOINT IN FAHRENHEIT
  RH     - RELATIVE HUMIDITY IN PERCENT
  WIND   - DIRECTION AND SPEED /MPH FOR ISLANDS...KTS FOR BUOYS/
  PRES   - MEAN SEA LEVEL PRESSURE IN INCHES OF HG
  VSB    - VISIBILITY IN MILES
  HX     - HEAT INDEX
  WCI    - WIND CHILL INDEX
  VRB    - VARIABLE WIND DIRECTION
  N/A    - NOT AVAILABLE




USA.gov is the U.S. government's official web portal to all federal, state and local government web resources and services.